カタログに戻る

SHUTIANYUXING-04

運用中科学SSO
NORAD 67750·PAYLOAD·🇨🇳 China
この衛星名は、まだ公式ソースで確認されていません。

打ち上げ Feb 12, 2026 から South China Sea Launch Area

Loading…

次のパス (今後24時間)

TLE

最新Source: Space-Track

元期: Sep 14, 2026, 07:19 UTC

1 67750U 26027E   26257.30529359  .00005433  00000-0  25136-3 0  9995
2 67750  97.5190  25.2054 0007833 275.8215  84.2127 15.20535820 32502

AllMySatでSHUTIANYUXING-04をリアルタイム追跡

Download on the App Store